TimeEST,TemperatureF,Dew PointF,Humidity,Sea Level PressureIn,VisibilityMPH,Wind Direction,Wind SpeedMPH,Gust SpeedMPH,PrecipitationIn,Events,Conditions,WindDirDegrees,DateUTC
12:53 AM,46.0,28.9,51,29.89,10.0,SW,17.3,25.3,N/A,,Clear,230,2013-01-20 05:53:00
1:53 AM,45.0,32.0,60,29.90,10.0,SW,13.8,21.9,N/A,,Clear,230,2013-01-20 06:53:00
2:53 AM,44.1,33.1,65,29.93,10.0,WSW,12.7,23.0,N/A,,Clear,250,2013-01-20 07:53:00
3:53 AM,43.0,30.9,62,29.96,10.0,West,19.6,36.8,N/A,,Mostly Cloudy,260,2013-01-20 08:53:00
4:53 AM,37.9,19.0,47,30.00,10.0,WNW,13.8,28.8,N/A,,Clear,290,2013-01-20 09:53:00
5:53 AM,35.1,16.0,46,30.02,10.0,West,17.3,25.3,N/A,,Clear,280,2013-01-20 10:53:00
6:53 AM,30.9,10.9,43,30.06,10.0,WNW,18.4,23.0,N/A,,Clear,300,2013-01-20 11:53:00
7:53 AM,28.9,9.0,43,30.10,10.0,WNW,10.4,-,N/A,,Clear,300,2013-01-20 12:53:00
8:53 AM,27.0,10.9,51,30.15,10.0,NW,13.8,19.6,N/A,,Clear,320,2013-01-20 13:53:00
9:53 AM,28.0,12.9,53,30.19,10.0,WNW,12.7,20.7,N/A,,Clear,290,2013-01-20 14:53:00
10:53 AM,27.0,12.9,56,30.22,10.0,WNW,13.8,21.9,N/A,,Clear,300,2013-01-20 15:53:00
11:53 AM,28.0,12.9,53,30.23,10.0,West,11.5,-,N/A,,Clear,280,2013-01-20 16:53:00
12:53 PM,30.0,12.9,49,30.21,10.0,NW,9.2,17.3,N/A,,Clear,320,2013-01-20 17:53:00
1:53 PM,30.0,10.0,43,30.19,10.0,West,4.6,-,N/A,,Clear,280,2013-01-20 18:53:00
2:53 PM,30.9,9.0,40,30.18,10.0,WNW,9.2,-,N/A,,Clear,290,2013-01-20 19:53:00
3:53 PM,30.9,9.0,40,30.19,10.0,WNW,8.1,-,N/A,,Clear,300,2013-01-20 20:53:00
4:53 PM,28.9,10.9,47,30.20,10.0,WNW,9.2,-,N/A,,Mostly Cloudy,300,2013-01-20 21:53:00
5:53 PM,28.0,8.1,43,30.22,10.0,West,6.9,-,N/A,,Overcast,280,2013-01-20 22:53:00
6:53 PM,27.0,10.0,49,30.22,10.0,WNW,5.8,-,N/A,,Mostly Cloudy,300,2013-01-20 23:53:00
7:53 PM,26.1,10.0,51,30.22,10.0,WNW,6.9,-,N/A,,Partly Cloudy,300,2013-01-21 00:53:00
8:53 PM,25.0,10.0,53,30.21,10.0,NW,5.8,-,N/A,,Clear,320,2013-01-21 01:53:00
9:53 PM,24.1,12.0,60,30.21,10.0,NNW,4.6,-,N/A,,Mostly Cloudy,340,2013-01-21 02:53:00
10:53 PM,24.1,12.0,60,30.20,10.0,NNW,5.8,-,N/A,,Overcast,330,2013-01-21 03:53:00
11:53 PM,23.0,12.0,63,30.19,10.0,WNW,4.6,-,N/A,,Overcast,300,2013-01-21 04:53:00